McAlester, OK

9:11 AM CDT on April 26, 2017 (GMT -0500)
McAlester Regional

Weather History for KMLC - September, 2013

Change the Weather History Date:

Monday, September 9, 2013

  Actual Average Record
Temperature  
Mean Temperature 82 °F -  
Max Temperature 96 °F 88 °F 98 °F (1954)
Min Temperature 68 °F 65 °F 46 °F (2011)
Cooling Degree Days 16    
Growing Degree Days 32 (Base 50)    
Moisture  
Dew Point 61 °F    
Average Humidity 49    
Maximum Humidity 78    
Minimum Humidity 29    
Precipitation  
Precipitation 0.00 in - - ()
Sea Level Pressure  
Sea Level Pressure 29.96 in    
Wind  
Wind Speed 4 mph (South)    
Max Wind Speed 13 mph    
Max Gust Speed 20 mph    
Visibility 8 miles    
Events      
Averages and records for this station are not official NWS values.
T = Trace of Precipitation, MM = Missing Value Source: NWS Daily Summary

Daily Weather History Graph

Daily Weather History Graph

Search for Another Location

Airport or City:

Trip Planner

Search our weather history database for the weather conditions in past years. The results will help you decide how hot, cold, wet, or windy it might be!

Date:

Astronomy

Sep. 09, 2013 Rise Set
Actual Time 7:01 AM CDT 7:38 PM CDT
Civil Twilight 6:36 AM CDT 8:03 PM CDT
Nautical Twilight 6:06 AM CDT 8:33 PM CDT
Astronomical Twilight 5:35 AM CDT 9:04 PM CDT
Moon 11:12 AM CDT (9/9) 10:08 PM CDT (9/9)
Length of Visible Light 13h 27m
Length of Day
12h 36m
Waxing Crescent, 19% of the Moon is Illuminated
Sep 9
Waxing Crescent
Sep 12
First Quarter
Sep 19
Full
Sep 26
Last Quarter
Oct 4
New

Hourly Weather History & Observations

Time (CDT) Temp. Heat Index Dew Point Humidity Pressure Visibility Wind Dir Wind Speed Gust Speed Precip Events Conditions
12:53 AM 70.0 °F - 61.0 °F 73% 29.92 in 10.0 mi Calm Calm - N/A   Clear
1:53 AM 70.0 °F - 61.0 °F 73% 29.92 in 10.0 mi Calm Calm - N/A   Clear
2:53 AM 68.0 °F - 61.0 °F 78% 29.92 in 10.0 mi Calm Calm - N/A   Partly Cloudy
3:53 AM 68.0 °F - 61.0 °F 78% 29.92 in 10.0 mi Calm Calm - N/A   Clear
4:53 AM 72.0 °F - 60.1 °F 66% 29.93 in 10.0 mi Calm Calm - N/A   Clear
5:53 AM 71.1 °F - 60.1 °F 68% 29.94 in 10.0 mi SSW 3.5 mph - N/A   Clear
6:53 AM 70.0 °F - 61.0 °F 73% 29.95 in 10.0 mi Calm Calm - N/A   Clear
7:53 AM 71.1 °F - 63.0 °F 75% 29.97 in 10.0 mi Calm Calm - N/A   Clear
8:53 AM 79.0 °F - 64.0 °F 60% 29.98 in 10.0 mi SSW 6.9 mph - N/A   Clear
9:53 AM 82.9 °F 84.6 °F 64.9 °F 54% 29.99 in 10.0 mi SW 5.8 mph - N/A   Clear
10:09 AM 84.2 °F 85.6 °F 64.4 °F 51% 30.03 in 0.2 mi SSW 4.6 mph - N/A   Haze
10:53 AM 88.0 °F 89.3 °F 64.0 °F 45% 29.99 in 0.2 mi SW 6.9 mph - N/A   Haze
11:53 AM 90.0 °F 90.6 °F 63.0 °F 40% 29.99 in 0.2 mi South 5.8 mph - N/A   Haze
12:01 PM 91.4 °F 92.1 °F 62.6 °F 38% 30.02 in 1.0 mi SSW 11.5 mph - N/A   Haze
12:06 PM 91.4 °F 92.1 °F 62.6 °F 38% 30.02 in 2.0 mi South 10.4 mph - N/A   Haze
12:13 PM 91.4 °F 92.1 °F 62.6 °F 38% 30.02 in 1.2 mi SE 8.1 mph - N/A   Haze
12:24 PM 91.4 °F 91.4 °F 60.8 °F 36% 30.02 in 0.5 mi SSW 12.7 mph 18.4 mph N/A   Haze
12:29 PM 91.4 °F 91.4 °F 60.8 °F 36% 30.02 in 2.5 mi SSW 11.5 mph 18.4 mph N/A   Haze
12:36 PM 89.6 °F 90.1 °F 62.6 °F 40% 30.01 in 10.0 mi Variable 3.5 mph 16.1 mph N/A   Scattered Clouds
12:53 PM 91.9 °F 91.8 °F 61.0 °F 35% 29.98 in 10.0 mi SSW 9.2 mph 17.3 mph N/A   Partly Cloudy
1:53 PM 93.0 °F 92.7 °F 60.1 °F 33% 29.96 in 10.0 mi SSE 9.2 mph 18.4 mph N/A   Clear
2:53 PM 93.9 °F 93.2 °F 59.0 °F 31% 29.95 in 10.0 mi South 12.7 mph 17.3 mph N/A   Scattered Clouds
3:53 PM 95.0 °F 94.0 °F 57.9 °F 29% 29.93 in 10.0 mi Variable 6.9 mph 19.6 mph N/A   Scattered Clouds
4:53 PM 93.9 °F 92.6 °F 57.0 °F 29% 29.91 in 10.0 mi South 6.9 mph 19.6 mph N/A   Partly Cloudy
5:53 PM 93.0 °F 91.7 °F 57.0 °F 30% 29.91 in 10.0 mi Variable 6.9 mph 16.1 mph N/A   Clear
6:53 PM 91.0 °F 90.0 °F 57.9 °F 33% 29.91 in 10.0 mi Variable 5.8 mph - N/A   Clear
7:53 PM 87.1 °F 86.5 °F 59.0 °F 39% 29.91 in 10.0 mi SSE 4.6 mph - N/A   Clear
8:53 PM 84.9 °F 84.2 °F 57.9 °F 40% 29.93 in 10.0 mi South 4.6 mph - N/A   Clear
9:53 PM 82.0 °F 82.1 °F 59.0 °F 45% 29.95 in 10.0 mi SSE 4.6 mph - N/A   Clear
10:53 PM 78.1 °F - 60.1 °F 54% 29.96 in 10.0 mi SE 3.5 mph - N/A   Clear
11:53 PM 79.0 °F - 60.1 °F 52% 29.96 in 10.0 mi SE 4.6 mph - N/A   Clear